SCP
0 0 0 0 0 0 0 0 0 0 0 0 0 0 0 0 0 0 0 0 0 0 0 0 0 -0 -0 -0 0 0 0 0 0 -0 -0 0 0 0 0 -0 -0 0 0
0 0 0 0 0 0 0 0 0 0 0 0 0 0 0 0 0 0 0 0 0 0 0 0 0 0 0 0 0 0 0 0 0 0 0 -0 0 0 0 0 0 0 -0
0 0 0 0 0 0 0 0 0 0 0 0 0 0 0 0 0 0 0 0 0 0 0 0 0 0 0 0 0 0 0 0 0 0 0 0 0 0 0 0 0 0 0
0 0 0 0 0 0 0 0 0 0 0 0 0 0 0 0 0 0 0 0 0 0 0 0 0 0 0 0 0 0 0 0 0 0 0 0 0 0 0 0 0 0 0
0 0 0 0 0 0 0 0 0 0 1 0 0 0 0 0 0 0 0 0 0 0 0 1 0 0 0 0 0 0 0 0 0 0 0 0 0 0 0 0 0 0 0
0 0 0 0 0 0 0 0 1 1 1 1 1 1 1 1 1 1 1 1 0 0 0 0 1 1 0 0 0 0 0 0 0 0 0 0 0 0 0 0 0 0 0
0 0 0 0 1 1 1 1 1 1 1 1 1 1 1 1 1 2 1 1 1 1 1 1 1 1 1 1 1 1 0 0 0 0 0 0 0 0 0 0 0 0 0
1 1 1 1 2 1 1 1 1 1 1 1 0 0 0 0 0 0 1 1 1 1 1 1 1 1 1 1 1 1 1 1 1 1 1 1 1 0 0 0 0 0 0
1 1 1 1 1 0 0 0 0 0 0 0 0 0 0 0 0 0 0 0 0 0 1 1 1 1 2 2 2 1 1 1 1 1 1 1 1 1 1 0 0 0 0
0 0 0 0 0 1 1 1 0 0 0 1 0 1 0 0 0 0 0 0 -0 0 0 -0 0 1 1 0 1 1 1 1 1 1 1 1 1 1 1 1 0 1 1
0 0 0 0 0 0 0 0 0 0 0 0 0 0 0 0 0 0 0 0 0 0 0 0 0 0 0 0 0 0 1 0 1 1 1 1 1 1 1 1 1 1 1
0 0 0 0 0 0 0 0 0 0 0 0 0 0 0 0 0 1 0 0 0 0 0 0 0 0 0 1 1 0 1 0 0 0 0 0 0 1 1 1 1 1 1
0 0 0 0 0 0 0 0 0 0 0 0 0 0 0 0 0 0 0 0 0 0 0 0 0 0 0 1 1 0 0 0 0 0 0 0 0 0 0 0 1 1 1
0 0 0 0 0 0 0 0 0 0 0 0 0 0 0 0 0 0 0 0 0 0 0 0 0 0 0 1 0 0 0 0 0 0 0 0 0 0 0 0 0 0 0
0 0 0 0 0 0 0 0 0 0 0 0 0 0 0 0 0 0 0 0 0 0 0 0 0 0 1 0 0 0 0 0 0 0 0 0 0 0 0 0 0 0 0
0 0 0 0 0 0 0 0 0 0 0 0 0 0 0 0 0 0 0 0 0 0 0 0 0 0 0 0 0 0 0 0 0 0 0 0 0 0 0 0 0 0 0
0 0 0 0 0 0 0 0 0 0 0 0 0 0 0 0 0 0 0 0 0 0 0 0 0 0 0 0 0 0 0 0 1 0 0 0 0 0 0 0 0 0 0
0 0 0 0 0 0 0 0 0 0 0 0 0 0 0 0 0 0 0 0 0 0 0 0 0 0 0 0 0 0 0 0 0 0 0 0 0 0 0 0 0 0 0
0 0 0 0 0 0 0 0 0 0 0 0 0 0 0 0 0 0 0 0 0 0 0 0 0 0 0 0 0 0 0 0 0 0 0 0 0 0 0 0 0 0 0
0 0 0 0 0 0 0 0 0 0 0 0 0 0 0 0 0 0 0 0 0 0 0 0 0 0 0 0 0 0 0 0 0 0 0 0 0 0 0 0 0 0 0
0 0 0 0 0 0 0 0 0 0 0 0 0 0 0 0 0 0 0 0 0 0 0 0 0 0 0 0 0 0 0 0 0 0 0 0 0 0 0 0 0 0 0
0 0 0 0 0 0 0 0 0 0 0 0 0 0 0 0 0 0 0 0 0 0 0 0 0 0 0 0 0 0 0 0 0 0 0 0 0 0 0 0 0 0 0
0 0 0 0 0 0 0 0 0 0 0 0 0 0 0 0 0 0 0 0 0 0 0 0 0 0 0 0 0 0 0 0 0 0 0 0 0 0 0 0 0 0 0
0 0 0 0 0 0 0 0 0 0 0 0 0 0 0 0 0 0 0 0 0 0 0 0 0 0 0 0 0 0 0 0 0 0 0 0 0 0 0 0 0 0 0
0 0 0 0 0 0 0 0 0 0 0 0 0 0 0 0 0 0 0 0 0 0 -0 -0 0 0 0 0 0 0 0 0 0 0 0 0 0 0 0 0 0 0 0
0 0 0 0 0 0 0 0 0 0 0 0 0 0 0 0 0 0 0 0 0 0 0 0 0 0 0 0 0 0 0 0 0 0 0 0 0 0 0 0 0 0 0
Wind_Speed_500mb
21 21 22 22 20 21 19 18 18 17 16 16 17 16 15 15 18 16 16 23 19 18 18 19 20 20 20 18 18 17 16 15 15 14 14 14 16 16 15 16 15 14 13
20 19 20 21 22 22 21 21 21 20 20 20 21 22 21 21 21 22 19 24 29 26 28 28 28 28 26 24 24 23 22 22 21 20 19 18 18 18 18 19 19 18 16
23 22 19 20 21 21 22 23 23 23 22 24 25 25 25 25 26 26 25 23 28 35 36 38 37 35 33 32 30 29 28 26 27 27 26 24 24 22 22 22 22 22 20
27 25 20 20 20 21 21 23 24 25 26 27 26 26 28 28 28 29 29 29 30 31 37 42 44 42 41 40 37 34 32 32 31 32 32 30 29 29 29 28 25 26 25
27 27 22 22 23 21 23 25 26 26 26 29 31 31 30 28 31 32 33 35 36 36 34 40 44 48 48 49 45 41 38 38 38 38 38 39 37 36 35 35 33 32 31
29 29 25 25 24 24 26 28 31 28 26 24 27 31 28 30 31 34 38 39 40 41 43 43 45 52 59 59 52 48 47 47 49 48 48 46 46 45 42 41 41 39 39
32 34 28 24 25 26 28 31 32 33 34 36 21 24 26 29 27 27 31 37 38 40 45 49 47 50 46 61 57 54 52 51 51 50 51 52 52 53 52 49 48 47 45
32 33 30 27 35 27 29 36 43 46 51 52 49 64 68 73 84 66 58 36 34 38 51 56 51 54 49 52 62 67 59 54 51 51 51 51 54 56 58 57 55 53 53
38 45 34 29 29 42 45 53 58 64 61 67 73 64 42 58 59 64 77 90 89 86 68 54 62 63 61 61 65 65 67 60 55 51 53 58 58 58 59 62 62 60 60
40 36 37 40 45 60 54 65 71 64 56 56 54 56 71 66 49 48 50 63 86 82 84 78 79 85 72 76 76 72 62 61 56 54 51 57 59 58 60 62 64 64 66
35 34 40 38 38 40 40 37 35 34 35 31 35 40 45 54 67 70 61 54 51 60 69 76 79 81 87 111 99 92 69 65 63 61 56 55 57 57 55 60 64 63 64
36 35 31 27 24 26 31 34 36 37 39 40 42 43 48 47 49 47 65 70 63 72 63 62 57 62 75 78 85 82 66 70 73 64 62 59 60 57 56 58 60 58 58
30 30 25 22 22 21 20 21 25 28 31 33 35 38 39 38 44 49 53 61 64 60 64 59 60 57 57 63 64 61 58 61 60 67 71 70 68 63 58 60 62 63 64
23 20 19 18 19 19 19 18 18 21 25 28 32 36 41 45 47 51 52 49 65 66 69 67 56 58 62 71 70 78 74 74 67 58 63 80 75 72 66 63 65 64 63
22 21 21 20 18 16 15 14 16 17 20 23 28 33 36 40 45 49 57 58 53 45 61 69 63 55 54 56 62 67 68 84 75 75 75 81 79 78 75 71 67 70 68
23 20 19 16 14 14 14 13 16 20 20 18 19 31 34 35 39 42 40 41 50 52 55 64 69 70 65 71 60 74 78 80 83 82 85 92 89 81 77 80 76 74 78
20 18 15 13 12 13 14 14 13 14 13 17 20 21 24 28 24 30 36 38 37 43 54 65 59 61 67 82 86 76 65 68 73 81 81 79 90 94 89 85 85 87 88
18 17 16 15 13 11 10 10 10 13 15 15 17 18 21 21 26 27 29 35 37 38 44 59 53 56 55 54 65 76 86 89 78 75 74 72 91 95 103 109 111 101 99
20 18 15 11 9 10 10 12 13 14 18 18 15 17 19 23 26 29 32 37 40 43 42 51 58 52 55 53 56 56 60 67 72 84 79 73 67 84 101 105 101 111 113
23 21 18 16 15 12 11 11 9 12 12 11 13 16 17 19 25 32 34 37 43 45 43 46 51 55 56 55 54 61 61 65 67 63 72 75 74 74 88 92 110 130 110
26 22 20 19 17 14 10 8 8 5 6 8 13 13 17 26 30 31 33 38 41 39 41 46 51 56 57 57 54 51 61 58 61 59 58 63 60 62 74 92 102 99 84
28 25 23 21 20 14 24 16 14 8 7 8 10 12 18 22 20 26 30 33 33 34 40 45 39 45 52 54 58 57 58 58 58 54 48 45 51 60 73 89 93 89 81
30 28 25 25 24 21 24 19 16 10 9 9 11 12 15 18 17 21 30 35 28 20 31 45 48 49 58 53 50 46 50 48 53 48 40 56 61 72 79 79 79 74 72
34 31 30 28 25 23 29 23 20 16 14 12 11 10 11 17 24 28 31 31 23 33 26 29 28 38 44 53 40 32 36 46 46 36 46 45 48 58 52 42 37 27 15
37 35 33 31 29 28 27 25 22 19 17 14 13 12 13 13 19 20 22 21 32 30 25 27 28 33 31 40 35 29 24 24 23 32 32 40 35 38 31 21 18 16 19
38 35 34 33 32 25 31 27 24 21 22 14 16 16 20 15 21 24 17 18 24 25 32 30 22 29 28 23 25 14 6 7 15 17 14 23 35 25 17 23 19 21 22
Wind_Direction_500mb
200 204 205 203 209 216 221 229 230 243 256 266 266 268 264 251 249 249 246 258 260 259 253 248 245 239 239 241 244 239 237 239 239 231 221 222 227 225 218 219 216 217 208
209 207 214 213 218 221 227 237 248 252 261 263 268 268 266 262 259 254 255 266 250 259 263 256 252 250 247 243 246 246 245 244 243 242 240 235 234 237 235 229 230 226 226
221 203 217 223 230 234 236 247 245 258 260 266 269 268 271 268 262 261 258 250 266 262 260 258 256 255 253 253 251 250 249 249 251 250 246 244 243 242 243 242 236 235 229
221 229 226 233 237 240 243 248 255 257 266 271 273 270 267 268 265 261 266 258 258 257 274 257 255 255 257 256 255 256 254 251 252 252 252 250 252 249 246 247 246 245 241
225 231 231 240 250 250 248 251 257 265 266 268 271 277 275 267 265 270 262 266 265 259 256 265 261 253 255 257 254 256 254 254 255 255 253 250 249 250 252 252 249 246 246
232 238 239 243 254 260 259 263 259 259 263 267 266 266 272 274 271 268 270 271 271 267 265 259 262 263 252 250 250 249 254 255 257 256 255 252 251 250 248 249 249 248 248
236 238 241 244 254 253 254 262 279 276 277 277 291 293 288 293 287 288 277 272 261 264 265 264 264 254 254 244 247 249 249 252 255 257 254 251 249 249 249 249 249 246 249
246 252 243 235 235 251 282 280 283 278 275 274 277 282 288 279 266 276 270 272 283 278 264 262 262 256 251 246 245 241 243 248 253 256 253 250 251 251 251 251 249 245 246
251 255 255 251 246 252 254 243 261 271 270 260 257 250 249 258 268 268 268 267 265 269 275 269 269 263 256 246 241 247 241 244 251 257 258 253 251 252 252 251 249 246 244
255 264 265 257 256 250 252 247 254 263 268 264 267 252 254 254 264 272 279 276 257 272 266 274 280 271 261 255 247 239 246 245 251 257 262 258 255 253 254 251 246 244 242
256 254 261 265 260 255 259 257 253 247 245 250 254 262 264 276 263 249 267 264 270 270 280 280 270 278 269 263 265 266 257 257 261 260 263 262 256 256 252 245 246 245 246
257 262 266 265 253 247 252 253 251 254 259 263 264 261 266 267 272 259 262 263 268 263 269 275 274 274 272 265 258 257 252 250 259 263 261 263 257 255 249 245 244 243 241
252 258 254 251 250 249 252 255 256 258 258 259 263 260 257 256 258 258 265 269 271 272 273 274 276 272 270 264 253 248 244 251 262 262 259 259 256 252 248 247 244 245 248
229 237 236 242 247 252 256 258 259 257 260 262 263 263 263 265 262 263 264 267 274 275 276 271 276 279 276 275 267 264 250 257 257 258 268 256 255 250 246 243 244 244 240
234 240 246 251 254 258 260 261 256 262 265 267 270 267 268 268 267 267 267 273 276 284 278 273 274 273 275 277 279 277 275 266 267 262 265 263 255 251 246 242 242 245 243
228 228 232 236 244 257 266 270 280 280 278 274 273 278 277 277 279 277 274 274 270 273 277 279 277 273 269 267 270 278 276 265 265 262 262 260 255 248 247 242 241 237 244
216 219 225 235 250 264 272 272 275 284 294 297 298 299 297 296 292 291 283 281 279 274 276 280 285 290 281 270 272 264 270 272 264 262 262 257 257 249 245 242 243 244 243
218 220 229 240 254 270 286 298 308 315 318 316 313 310 305 300 300 298 293 290 283 280 283 289 290 288 288 285 278 269 264 263 266 265 264 264 265 250 246 253 253 242 242
222 229 239 250 266 275 289 305 317 324 322 318 318 316 314 310 311 300 298 293 289 287 284 287 295 292 290 289 282 278 269 269 265 261 263 267 270 259 261 253 251 240 234
226 232 238 244 248 254 268 287 300 314 321 329 326 319 323 319 319 312 307 301 297 283 284 289 292 299 300 294 284 280 275 271 272 269 258 254 254 258 261 255 238 229 213
224 227 235 236 239 242 236 237 263 290 315 321 322 329 320 314 324 325 316 313 307 288 287 294 296 301 303 298 284 278 277 275 278 276 270 260 255 254 249 235 222 211 201
225 231 230 227 232 220 244 252 246 250 281 307 325 328 331 325 337 331 321 324 313 308 301 303 302 303 308 303 288 275 276 280 280 276 271 254 251 248 239 224 220 217 218
222 224 224 225 231 223 250 246 248 224 256 284 306 331 334 315 329 326 341 343 338 322 310 311 293 307 309 312 295 280 277 276 272 268 244 213 204 201 199 201 204 211 218
219 222 221 228 228 226 247 245 248 236 249 263 275 303 315 328 308 326 339 339 332 332 327 329 321 321 323 321 319 297 276 277 266 239 204 174 186 187 189 181 177 176 198
220 221 222 227 225 222 243 242 243 228 242 251 261 260 279 301 305 326 337 337 344 352 336 339 339 334 327 341 334 334 303 273 218 192 195 189 158 147 144 159 186 214 222
219 222 222 227 226 221 253 240 234 219 234 237 242 265 271 286 308 331 338 343 338 1 2 358 321 329 358 354 38 54 20 228 210 164 173 156 149 147 160 194 195 182 189
Wind_Speed_850mb
21 21 22 22 20 21 19 18 18 17 16 16 17 16 15 15 18 16 16 23 19 18 18 19 20 20 20 18 18 17 16 15 15 14 14 14 16 16 15 16 15 14 13
20 19 20 21 22 22 21 21 21 20 20 20 21 22 21 21 21 22 19 24 29 26 28 28 28 28 26 24 24 23 22 22 21 20 19 18 18 18 18 19 19 18 16
23 22 19 20 21 21 22 23 23 23 22 24 25 25 25 25 26 26 25 23 28 35 36 38 37 35 33 32 30 29 28 26 27 27 26 24 24 22 22 22 22 22 20
27 25 20 20 20 21 21 23 24 25 26 27 26 26 28 28 28 29 29 29 30 31 37 42 44 42 41 40 37 34 32 32 31 32 32 30 29 29 29 28 25 26 25
27 27 22 22 23 21 23 25 26 26 26 29 31 31 30 28 31 32 33 35 36 36 34 40 44 48 48 49 45 41 38 38 38 38 38 39 37 36 35 35 33 32 31
29 29 25 25 24 24 26 28 31 28 26 24 27 31 28 30 31 34 38 39 40 41 43 43 45 52 59 59 52 48 47 47 49 48 48 46 46 45 42 41 41 39 39
32 34 28 24 25 26 28 31 32 33 34 36 21 24 26 29 27 27 31 37 38 40 45 49 47 50 46 61 57 54 52 51 51 50 51 52 52 53 52 49 48 47 45
32 33 30 27 35 27 29 36 43 46 51 52 49 64 68 73 84 66 58 36 34 38 51 56 51 54 49 52 62 67 59 54 51 51 51 51 54 56 58 57 55 53 53
38 45 34 29 29 42 45 53 58 64 61 67 73 64 42 58 59 64 77 90 89 86 68 54 62 63 61 61 65 65 67 60 55 51 53 58 58 58 59 62 62 60 60
40 36 37 40 45 60 54 65 71 64 56 56 54 56 71 66 49 48 50 63 86 82 84 78 79 85 72 76 76 72 62 61 56 54 51 57 59 58 60 62 64 64 66
35 34 40 38 38 40 40 37 35 34 35 31 35 40 45 54 67 70 61 54 51 60 69 76 79 81 87 111 99 92 69 65 63 61 56 55 57 57 55 60 64 63 64
36 35 31 27 24 26 31 34 36 37 39 40 42 43 48 47 49 47 65 70 63 72 63 62 57 62 75 78 85 82 66 70 73 64 62 59 60 57 56 58 60 58 58
30 30 25 22 22 21 20 21 25 28 31 33 35 38 39 38 44 49 53 61 64 60 64 59 60 57 57 63 64 61 58 61 60 67 71 70 68 63 58 60 62 63 64
23 20 19 18 19 19 19 18 18 21 25 28 32 36 41 45 47 51 52 49 65 66 69 67 56 58 62 71 70 78 74 74 67 58 63 80 75 72 66 63 65 64 63
22 21 21 20 18 16 15 14 16 17 20 23 28 33 36 40 45 49 57 58 53 45 61 69 63 55 54 56 62 67 68 84 75 75 75 81 79 78 75 71 67 70 68
23 20 19 16 14 14 14 13 16 20 20 18 19 31 34 35 39 42 40 41 50 52 55 64 69 70 65 71 60 74 78 80 83 82 85 92 89 81 77 80 76 74 78
20 18 15 13 12 13 14 14 13 14 13 17 20 21 24 28 24 30 36 38 37 43 54 65 59 61 67 82 86 76 65 68 73 81 81 79 90 94 89 85 85 87 88
18 17 16 15 13 11 10 10 10 13 15 15 17 18 21 21 26 27 29 35 37 38 44 59 53 56 55 54 65 76 86 89 78 75 74 72 91 95 103 109 111 101 99
20 18 15 11 9 10 10 12 13 14 18 18 15 17 19 23 26 29 32 37 40 43 42 51 58 52 55 53 56 56 60 67 72 84 79 73 67 84 101 105 101 111 113
23 21 18 16 15 12 11 11 9 12 12 11 13 16 17 19 25 32 34 37 43 45 43 46 51 55 56 55 54 61 61 65 67 63 72 75 74 74 88 92 110 130 110
26 22 20 19 17 14 10 8 8 5 6 8 13 13 17 26 30 31 33 38 41 39 41 46 51 56 57 57 54 51 61 58 61 59 58 63 60 62 74 92 102 99 84
28 25 23 21 20 14 24 16 14 8 7 8 10 12 18 22 20 26 30 33 33 34 40 45 39 45 52 54 58 57 58 58 58 54 48 45 51 60 73 89 93 89 81
30 28 25 25 24 21 24 19 16 10 9 9 11 12 15 18 17 21 30 35 28 20 31 45 48 49 58 53 50 46 50 48 53 48 40 56 61 72 79 79 79 74 72
34 31 30 28 25 23 29 23 20 16 14 12 11 10 11 17 24 28 31 31 23 33 26 29 28 38 44 53 40 32 36 46 46 36 46 45 48 58 52 42 37 27 15
37 35 33 31 29 28 27 25 22 19 17 14 13 12 13 13 19 20 22 21 32 30 25 27 28 33 31 40 35 29 24 24 23 32 32 40 35 38 31 21 18 16 19
38 35 34 33 32 25 31 27 24 21 22 14 16 16 20 15 21 24 17 18 24 25 32 30 22 29 28 23 25 14 6 7 15 17 14 23 35 25 17 23 19 21 22
Wind_Direction_850mb
200 204 205 203 209 216 221 229 230 243 256 266 266 268 264 251 249 249 246 258 260 259 253 248 245 239 239 241 244 239 237 239 239 231 221 222 227 225 218 219 216 217 208
209 207 214 213 218 221 227 237 248 252 261 263 268 268 266 262 259 254 255 266 250 259 263 256 252 250 247 243 246 246 245 244 243 242 240 235 234 237 235 229 230 226 226
221 203 217 223 230 234 236 247 245 258 260 266 269 268 271 268 262 261 258 250 266 262 260 258 256 255 253 253 251 250 249 249 251 250 246 244 243 242 243 242 236 235 229
221 229 226 233 237 240 243 248 255 257 266 271 273 270 267 268 265 261 266 258 258 257 274 257 255 255 257 256 255 256 254 251 252 252 252 250 252 249 246 247 246 245 241
225 231 231 240 250 250 248 251 257 265 266 268 271 277 275 267 265 270 262 266 265 259 256 265 261 253 255 257 254 256 254 254 255 255 253 250 249 250 252 252 249 246 246
232 238 239 243 254 260 259 263 259 259 263 267 266 266 272 274 271 268 270 271 271 267 265 259 262 263 252 250 250 249 254 255 257 256 255 252 251 250 248 249 249 248 248
236 238 241 244 254 253 254 262 279 276 277 277 291 293 288 293 287 288 277 272 261 264 265 264 264 254 254 244 247 249 249 252 255 257 254 251 249 249 249 249 249 246 249
246 252 243 235 235 251 282 280 283 278 275 274 277 282 288 279 266 276 270 272 283 278 264 262 262 256 251 246 245 241 243 248 253 256 253 250 251 251 251 251 249 245 246
251 255 255 251 246 252 254 243 261 271 270 260 257 250 249 258 268 268 268 267 265 269 275 269 269 263 256 246 241 247 241 244 251 257 258 253 251 252 252 251 249 246 244
255 264 265 257 256 250 252 247 254 263 268 264 267 252 254 254 264 272 279 276 257 272 266 274 280 271 261 255 247 239 246 245 251 257 262 258 255 253 254 251 246 244 242
256 254 261 265 260 255 259 257 253 247 245 250 254 262 264 276 263 249 267 264 270 270 280 280 270 278 269 263 265 266 257 257 261 260 263 262 256 256 252 245 246 245 246
257 262 266 265 253 247 252 253 251 254 259 263 264 261 266 267 272 259 262 263 268 263 269 275 274 274 272 265 258 257 252 250 259 263 261 263 257 255 249 245 244 243 241
252 258 254 251 250 249 252 255 256 258 258 259 263 260 257 256 258 258 265 269 271 272 273 274 276 272 270 264 253 248 244 251 262 262 259 259 256 252 248 247 244 245 248
229 237 236 242 247 252 256 258 259 257 260 262 263 263 263 265 262 263 264 267 274 275 276 271 276 279 276 275 267 264 250 257 257 258 268 256 255 250 246 243 244 244 240
234 240 246 251 254 258 260 261 256 262 265 267 270 267 268 268 267 267 267 273 276 284 278 273 274 273 275 277 279 277 275 266 267 262 265 263 255 251 246 242 242 245 243
228 228 232 236 244 257 266 270 280 280 278 274 273 278 277 277 279 277 274 274 270 273 277 279 277 273 269 267 270 278 276 265 265 262 262 260 255 248 247 242 241 237 244
216 219 225 235 250 264 272 272 275 284 294 297 298 299 297 296 292 291 283 281 279 274 276 280 285 290 281 270 272 264 270 272 264 262 262 257 257 249 245 242 243 244 243
218 220 229 240 254 270 286 298 308 315 318 316 313 310 305 300 300 298 293 290 283 280 283 289 290 288 288 285 278 269 264 263 266 265 264 264 265 250 246 253 253 242 242
222 229 239 250 266 275 289 305 317 324 322 318 318 316 314 310 311 300 298 293 289 287 284 287 295 292 290 289 282 278 269 269 265 261 263 267 270 259 261 253 251 240 234
226 232 238 244 248 254 268 287 300 314 321 329 326 319 323 319 319 312 307 301 297 283 284 289 292 299 300 294 284 280 275 271 272 269 258 254 254 258 261 255 238 229 213
224 227 235 236 239 242 236 237 263 290 315 321 322 329 320 314 324 325 316 313 307 288 287 294 296 301 303 298 284 278 277 275 278 276 270 260 255 254 249 235 222 211 201
225 231 230 227 232 220 244 252 246 250 281 307 325 328 331 325 337 331 321 324 313 308 301 303 302 303 308 303 288 275 276 280 280 276 271 254 251 248 239 224 220 217 218
222 224 224 225 231 223 250 246 248 224 256 284 306 331 334 315 329 326 341 343 338 322 310 311 293 307 309 312 295 280 277 276 272 268 244 213 204 201 199 201 204 211 218
219 222 221 228 228 226 247 245 248 236 249 263 275 303 315 328 308 326 339 339 332 332 327 329 321 321 323 321 319 297 276 277 266 239 204 174 186 187 189 181 177 176 198
220 221 222 227 225 222 243 242 243 228 242 251 261 260 279 301 305 326 337 337 344 352 336 339 339 334 327 341 334 334 303 273 218 192 195 189 158 147 144 159 186 214 222
219 222 222 227 226 221 253 240 234 219 234 237 242 265 271 286 308 331 338 343 338 1 2 358 321 329 358 354 38 54 20 228 210 164 173 156 149 147 160 194 195 182 189